Regional Weather Roundup
Issued by NWS

Home | Current Version | Previous Version | Graphics & Text | Print | Product List | Glossary On
Versions: 1 2 3 4 5 6 7 8 9 10 11 12 13 14 15 16 17 18 19 20 21 22 23 24 25 26 27 28 29 30 31 32 33 34 35 36 37 38 39 40 41 42 43 44 45 46 47 48 49 50
000
ASUS43 KDMX 261306
RWRIA

WEATHER ROUNDUP FOR IOWA
NATIONAL WEATHER SERVICE DES MOINES IA
700 AM CST SUN FEB 26 2017

NOTE: "FAIR" INDICATES FEW OR NO CLOUDS BELOW 12,000 FEET WITH NO
SIGNIFICANT WEATHER AND/OR OBSTRUCTIONS TO VISIBILITY.

* - THESE STATIONS ARE NOT NWS STATIONS...THUS NOT UNDER NWS
QUALITY CONTROL.  THEY ALSO DO NOT REPORT WEATHER SUCH
AS PRECIPITATION OR FOG.

IAZ001>003-012>014-020>022-031>034-043>046-261400-
   NORTHWEST IOWA

CITY           SKY/WX    TMP DP  RH WIND       PRES   REMARKS
CARROLL *      CLEAR     25  23  93 SW15      29.84R WCI  12
CHEROKEE *     CLEAR     18  16  93 S5        29.81S WCI  11
DENISON *      CLEAR     21  18  86 S6        29.83R WCI  14
LE MARS *      CLEAR     18  14  86 S6        29.82S WCI   9
SHELDON *      CLEAR     18  18 100 S6        29.77F WCI   9
SIOUX CITY     CLEAR     18  11  74 W8        29.84R WCI   8
SPENCER        CLEAR     14  11  87 SW6       29.79R WCI   5
STORM LAKE *   CLEAR     19  16  86 SW12      29.80S WCI   7
$$

IAZ055>058-069>071-079>083-090>094-261400-
   SOUTHWEST IOWA

CITY           SKY/WX    TMP DP  RH WIND       PRES   REMARKS
ATLANTIC *     CLEAR     21  18  86 SW6       29.88S WCI  14
AUDUBON *      CLEAR     25  19  80 SW5       29.86S WCI  19
CLARINDA *     PTCLDY    30  23  74 SW7       29.94S WCI  23
COUNCIL BLFS * CLEAR     28  23  80 SW12      29.87S WCI  18
CRESTON *      PTCLDY    28  21  74 SW9       29.91S WCI  20
HARLAN  *      CLEAR     19  19 100 CALM      29.90S
LAMONI         PTCLDY    31  18  58 SW14      29.92S WCI  21
RED OAK *      PTCLDY    28  23  80 MISG      29.90S
SHENANDOAH *   MOCLDY    28  23  80 SW8       29.92S WCI  20
$$

IAZ047>049-059>061-072>074-084-261400-
   CENTRAL IOWA

CITY           SKY/WX    TMP DP  RH WIND       PRES   REMARKS
AMES           CLEAR     27  22  81 SW12      29.85S WCI  17
ANKENY *       CLEAR     30  21  69 MISG      29.89S
BOONE *        CLEAR     27  21  80 SW10      29.84R WCI  17
CHARITON *     MOCLDY    32  18  55 SW13G20   29.91S WCI  22
DES MOINES     PTCLDY    29  20  69 SW13      29.89R WCI  19
GRINNELL*      CLEAR     28  20  72 SW10      29.88S WCI  18
KNOXVILLE *    CLEAR     30  18  59 SW9       29.89S WCI  22
MARSHALLTOWN   CLEAR     27  20  75 SW16      29.84R WCI  15
NEWTON *       CLEAR     27  19  74 SW10      29.87S WCI  17
PELLA *        CLEAR     30  19  62 SW8       29.92R WCI  22
PERRY *          N/A     24  20  85 SW10      29.86S WCI  14
$$

IAZ004>006-015-016-023>025-035-036-261400-
   NORTH CENTRAL IOWA

CITY           SKY/WX    TMP DP  RH WIND       PRES   REMARKS
ALGONA *       CLEAR     18  16  93 MISG      29.79R
CLARION *      CLEAR     18  16  93 SW8       29.82R WCI   7
ESTHERVILLE    CLEAR     17  14  88 SW16      29.77R WCI   2
FORT DODGE *   CLEAR     21  16  79 SW6       29.84R WCI  14
MASON CITY     CLEAR     23  17  78 SW14      29.80R WCI  11
FOREST CITY *    N/A     14  10  85 CALM      29.79R
WEBSTER CITY * CLEAR     23  19  86 SW13      29.81R WCI  11
IOWA FALLS *     N/A     25  20  82 SW13      29.84R WCI  14
$$

IAZ007>011-017>019-026>030-037>042-050>054-066-261400-
   NORTHEAST IOWA

CITY           SKY/WX    TMP DP  RH WIND       PRES   REMARKS
CEDAR RAPIDS   CLEAR     28  19  69 S15       29.87S WCI  16
CHARLES CITY * CLEAR     25  19  80 S10       29.80S WCI  15
CLINTON *      MOCLDY    30  20  66 S20G28    29.92F WCI  17
DECORAH *      MOCLDY    28  19  69 SW8G15    29.78S WCI  20
DUBUQUE        PTCLDY    27  18  69 S16       29.85F WCI  15
MONTICELLO *   PTCLDY    28  19  69 S8        29.87S WCI  20
OELWEIN *      CLEAR     25  21  86 SW12      29.83S WCI  14
WATERLOO       CLEAR     27  18  69 SW12      29.83R WCI  17
$$

IAZ064-065-067-068-078-261400-
   EAST CENTRAL IOWA

CITY           SKY/WX    TMP DP  RH WIND       PRES   REMARKS
DAVENPORT      MOCLDY    30  17  58 S18       29.92F WCI  18
IOWA CITY      PTCLDY    32  17  54 SW10      29.93R WCI  24
MUSCATINE *    CLOUDY    34  18  51 S18       29.93S WCI  23
QUAD CITIES    CLOUDY    32  17  54 S17G26    29.94S WCI  21
$$

IAZ062-063-075>077-085>089-095>099-261400-
   SOUTHEAST IOWA

CITY           SKY/WX    TMP DP  RH WIND       PRES   REMARKS
BURLINGTON     CLOUDY    31  18  58 S15       29.97F WCI  20
FAIRFIELD *    MOCLDY    32  16  51 SW14G22   29.92R WCI  22
KEOKUK *       CLOUDY    30  18  59 S15       29.98F WCI  19
CENTERVILLE *    N/A     32  18  55 SW13      29.95S WCI  22
OTTUMWA        PTCLDY    34  16  47 SW16      29.91R WCI  24
WASHINGTON *   PTCLDY    34  18  51 SW21G30   29.92S WCI  22
$$

ABBREVIATIONS USED IN REMARKS
   TC - TEMPERATURES IN CELSIUS
  WCI - WIND CHILL INDEX
   HX - HEAT INDEX
  VSB - VISIBILITY
$$




USA.gov is the U.S. government's official web portal to all federal, state and local government web resources and services.